Regional Weather Roundup
Issued by NWS

Home | Current Version | Previous Version | Graphics & Text | Print | Product List | Glossary On
Versions: 1 2 3 4 5 6 7 8 9 10 11 12 13 14 15 16 17 18 19 20 21 22 23 24 25 26 27 28 29 30 31 32 33 34 35 36 37 38 39 40 41 42 43 44 45 46 47 48 49 50
000
ASUS45 KCYS 251210
RWRWY

WYOMING REGIONAL WEATHER ROUNDUP
NATIONAL WEATHER SERVICE CHEYENNE WY
600 AM MDT THU MAY 25 2017

NOTE:  "FAIR" INDICATES FEW OR NO CLOUDS BELOW 12,000 FEET
WITH NO SIGNIFICANT WEATHER AND/OR OBSTRUCTIONS TO VISIBILITY.

WYZ001-251300-
YELLOWSTONE NATIONAL PARK

CITY           SKY/WX    TMP DP  RH WIND       PRES   REMARKS
LK YELLOWSTONE   N/A     26  19  74 CALM      29.72S
6HR MIN TEMP:  26; 6HR MAX TEMP:  40;

W YELLOWSTONE  NOT AVBL

$$
WYZ002>013-054>058-071-098>099-251300-
NORTHERN WYOMING

CITY           SKY/WX    TMP DP  RH WIND       PRES   REMARKS
JACKSON        FAIR      37  18  44 CALM      29.69R
CODY           FAIR      36  22  56 SE7       29.62R WCI  30
GREYBULL       FAIR      51  16  24 NW15      29.55R
6HR MIN TEMP:  51; 6HR MAX TEMP:  61;

WORLAND        FAIR      50  20  30 W8        29.58R
6HR MIN TEMP:  49; 6HR MAX TEMP:  57;

SHERIDAN       CLOUDY    43  33  68 S3        29.57F
6HR MIN TEMP:  42; 6HR MAX TEMP:  54;

BUFFALO        CLOUDY    47  22  37 N8        29.59S
6HR MIN TEMP:  45; 6HR MAX TEMP:  54;

GILLETTE       FAIR      38  31  76 W8        29.56R WCI  32
6HR MIN TEMP:  35; 6HR MAX TEMP:  49;

HULETT         FAIR      43  36  75 SW5       29.56R
NEWCASTLE      FAIR      46  37  71 NW13      29.53R

$$
WYZ014>020-022>026-101>103-251300-
CENTRAL WYOMING

CITY           SKY/WX    TMP DP  RH WIND       PRES   REMARKS
BIG PINEY      MOCLDY    39  32  76 W8        29.71R WCI  33
6HR MIN TEMP:  38; 6HR MAX TEMP:  45; 6HR PCP: TRACE;

PINEDALE       CLOUDY    37  34  87 SE3       29.71S
DUBOIS         NOT AVBL
LANDER         FAIR      52  26  36 N5        29.55S
6HR MIN TEMP:  50; 6HR MAX TEMP:  59; 6HR PCP: TRACE;

RIVERTON       MOCLDY    49  25  39 N13       29.54S
6HR MIN TEMP:  49; 6HR MAX TEMP:  61; 6HR PCP: TRACE;

CASPER         MOCLDY    46  43  89 SE7       29.57F
6HR MIN TEMP:  46; 6HR MAX TEMP:  61; 6HR PCP:  0.12;

DOUGLAS        MOCLDY    47  44  90 NW3       29.56S
6HR MIN TEMP:  46; 6HR MAX TEMP:  59; 6HR PCP:  0.04;


$$
WYZ021-027>030-104>119-251300-
SOUTHERN WYOMING

CITY           SKY/WX    TMP DP  RH WIND       PRES   REMARKS
EVANSTON       LGT RAIN  41  37  86 SW3       29.79S
6HR MIN TEMP:  41; 6HR MAX TEMP:  52;

KEMMERER       DRIZZLE   37  34  87 SW16G26   29.76S WCI  28
FORT BRIDGER   CLOUDY    41  40  98 SW7       29.82S
ROCK SPRINGS   LGT RAIN  41  36  82 W15       29.77R
6HR MIN TEMP:  41; 6HR MAX TEMP:  52; 6HR PCP: TRACE;

RAWLINS        CLOUDY    46  38  73 W15       29.69R
6HR MIN TEMP:  46; 6HR MAX TEMP:  56; 6HR PCP:  0.03;

SARATOGA       FAIR      45  43  93 CALM      29.67S
LARAMIE        FAIR      40  38  93 W9        29.65F WCI  34
6HR MIN TEMP:  40; 6HR MAX TEMP:  56; 6HR PCP: TRACE;

CHEYENNE       FAIR      51  41  68 NW8       29.62S
6HR MIN TEMP:  51; 6HR MAX TEMP:  57;

TORRINGTON     FAIR      52  45  77 SW3       29.53S
6HR MIN TEMP:  52; 6HR MAX TEMP:  63; 6HR PCP: TRACE;


$$



USA.gov is the U.S. government's official web portal to all federal, state and local government web resources and services.